Location: Skalnate Pleso
(49.1889°N, 20.2450°E)
Time: 17:29:43
(UTC+01:00)

SMAP - Pass Details

Date: 19 November 2019
Orbit: 681 x 683 km, 98.1° (Epoch: 14 December)

Event Time Altitude Azimuth Distance (km) Brightness Sun altitude
Rises 05:39:15 0° 18° (NNE) 3,058 6.5 -12.2°
Reaches altitude 10° 05:41:35 10° 24° (NNE) 2,137 5.7 -11.8°
Maximum altitude 05:46:06 48° 99° (E) 899 4.2 -11.1°
Drops below altitude 10° 05:50:35 10° 174° (S) 2,120 5.9 -10.4°
Sets 05:52:53 0° 180° (S) 3,030 6.6 -10.1°
